Regional Weather Roundup
Issued by NWS Sioux Falls, SD

Home | Current Version | Previous Version | Text Only | Print | Product List | Glossary On
Versions: 1 2 3 4 5 6 7 8 9 10 11 12 13 14 15 16 17 18 19 20 21 22 23 24 25 26 27 28 29 30 31 32 33 34 35 36 37 38 39 40 41 42 43 44 45 46 47 48 49 50
000
ASUS43 KFSD 191010
RWRFSD

WEATHER ROUNDUP FOR SE SOUTH DAKOTA/SW MINNESOTA/NW IOWA
NATIONAL WEATHER SERVICE SIOUX FALLS SD
500 AM CDT THU OCT 19 2017

NOTE: "FAIR" INDICATES FEW OR NO CLOUDS BELOW 12,000 FEET WITH NO
SIGNIFICANT WEATHER AND OR OBSTRUCTIONS TO VISIBILITY.


SDZ038>040-050-052>070-191100-
SOUTHEAST SOUTH DAKOTA

CITY           SKY/WX    TMP DP  RH WIND       PRES   REMARKS
BROOKINGS      CLOUDY    38  31  76 S3        30.02S
CHAMBERLAIN    CLOUDY    42  35  74 SE7       29.97F
HURON          CLOUDY    41  31  67 S10       29.98F
MADISON        FAIR      41  32  70 S7        30.02S
MITCHELL       CLOUDY    49  29  46 S9        30.01S
SIOUX FALLS    CLOUDY    40  35  83 CALM      30.04S
WINNER         FAIR      53  35  50 S18G29    29.96F
YANKTON        CLOUDY    43  35  73 CALM      30.04F
$$

MNZ071-072-080-081-089-090-097-098-191100-
SOUTHWEST MINNESOTA

CITY           SKY/WX    TMP DP  RH WIND       PRES   REMARKS
FAIRMONT       CLOUDY    37  33  85 CALM      30.06S
JACKSON        CLOUDY    39  32  75 S7        30.06S
LUVERNE        CLOUDY    36  32  87 CALM      30.05S
MARSHALL       CLOUDY    45  29  53 SW9       30.02S
MONTEVIDEO     CLOUDY    39  30  70 SW6       30.01S
PIPESTONE      CLOUDY    39  30  70 S5        30.03R
REDWOOD FALLS  CLOUDY    40  32  73 SW3       30.02S
TRACY          CLOUDY    46  32  56 SW8       30.02S
WORTHINGTON    CLOUDY    42  33  70 S8        30.05F
$$

IAZ001>003-012>014-020>022-031-032-NEZ013-014-SDZ071-191100-
NORTHWEST IOWA

CITY           SKY/WX    TMP DP  RH WIND       PRES   REMARKS
CHEROKEE       CLOUDY    37  37 100 CALM      30.07R
DENISON        CLOUDY    41  39  93 N3        30.08S
ESTHERVILLE    CLOUDY    39  35  86 S8        30.06S
LE MARS        CLOUDY    37  36  93 CALM      30.06S
ORANGE CITY    CLOUDY    46  36  66 E3        30.05S
SHELDON        CLOUDY    36  34  93 S6        30.04F
SIOUX CITY     CLOUDY    40  38  93 NE3       30.06S
SPENCER        CLOUDY    35  33  92 CALM      30.07R
STORM LAKE     CLOUDY    43  34  70 SE7       30.07S
$$

ABBREVIATIONS USED IN REMARKS
   TC - TEMPERATURE IN CELSIUS
  WCI - WIND CHILL INDEX
   HX - HEAT INDEX
  VSB - VISIBILITY





USA.gov is the U.S. government's official web portal to all federal, state and local government web resources and services.